Time,TemperatureF,DewpointF,PressureIn,WindDirection,WindDirectionDegrees,WindSpeedMPH,WindSpeedGustMPH,Humidity,HourlyPrecipIn,Conditions,Clouds,dailyrainin,SolarRadiationWatts/m^2,SoftwareType,DateUTC
2013-06-15 00:00:00,50.1,47.9,29.66,ENE,77,0.0,0.0,92,0.00,,---,0.00,0.00,VWS V14.00,2013-06-15 04:00:00,
2013-06-15 00:01:00,50.4,47.0,29.83,NW,317,0.0,0.0,88,0.00,,---,0.00,0.00,VWS V14.00,2013-06-15 04:01:00,
2013-06-15 00:06:00,50.3,46.9,29.83,NW,317,0.0,0.0,88,0.00,,---,0.00,0.00,VWS V14.00,2013-06-15 04:06:00,
2013-06-15 00:11:00,50.1,46.7,29.83,NW,317,0.0,0.0,88,0.00,,---,0.00,0.00,VWS V14.00,2013-06-15 04:11:00,
2013-06-15 00:17:00,49.9,46.5,29.83,NW,317,0.0,0.0,88,0.00,,---,0.00,0.00,VWS V14.00,2013-06-15 04:17:00,
2013-06-15 00:22:00,49.8,46.4,29.83,NW,317,0.0,0.0,88,0.00,,---,0.00,0.00,VWS V14.00,2013-06-15 04:22:00,
2013-06-15 00:27:00,49.7,46.6,29.83,NW,317,0.0,0.0,89,0.00,,---,0.00,0.00,VWS V14.00,2013-06-15 04:27:00,
2013-06-15 00:30:00,49.9,48.0,29.66,ENE,77,0.0,0.0,93,0.00,,---,0.00,0.00,VWS V14.00,2013-06-15 04:30:00,
2013-06-15 00:32:00,49.5,46.1,29.83,NW,317,0.0,0.0,88,0.00,,---,0.00,0.00,VWS V14.00,2013-06-15 04:32:00,
2013-06-15 00:37:00,49.2,46.1,29.83,NW,317,0.0,0.0,89,0.00,,---,0.00,0.00,VWS V14.00,2013-06-15 04:37:00,
2013-06-15 00:42:00,49.1,46.0,29.83,SE,126,0.0,0.0,89,0.00,,---,0.00,0.00,VWS V14.00,2013-06-15 04:42:00,
2013-06-15 00:47:00,48.9,45.5,29.83,SE,126,0.0,0.0,88,0.00,,---,0.00,0.00,VWS V14.00,2013-06-15 04:47:00,
2013-06-15 00:52:00,48.8,45.7,29.83,SE,126,0.0,0.0,89,0.00,,---,0.00,0.00,VWS V14.00,2013-06-15 04:52:00,
2013-06-15 00:57:00,48.7,45.3,29.83,SE,126,0.0,0.0,88,0.00,,---,0.00,0.00,VWS V14.00,2013-06-15 04:57:00,
2013-06-15 01:00:00,49.9,48.0,29.66,ENE,77,0.0,0.0,93,0.00,,---,0.00,0.00,VWS V14.00,2013-06-15 05:00:00,
2013-06-15 01:01:00,48.7,45.6,29.83,SE,126,0.0,0.0,89,0.00,,---,0.00,0.00,VWS V14.00,2013-06-15 05:01:00,
2013-06-15 01:07:00,48.7,45.6,29.83,SE,126,0.0,0.0,89,0.00,,---,0.00,0.00,VWS V14.00,2013-06-15 05:07:00,
2013-06-15 01:12:00,48.5,45.4,29.83,SE,126,0.0,0.0,89,0.00,,---,0.00,0.00,VWS V14.00,2013-06-15 05:12:00,
2013-06-15 01:17:00,48.2,44.8,29.83,SE,126,0.0,0.0,88,0.00,,---,0.00,0.00,VWS V14.00,2013-06-15 05:17:00,
2013-06-15 01:22:00,48.0,44.6,29.83,SE,126,0.0,0.0,88,0.00,,---,0.00,0.00,VWS V14.00,2013-06-15 05:22:00,
2013-06-15 01:27:00,47.8,44.7,29.83,SE,126,0.0,0.0,89,0.00,,---,0.00,0.00,VWS V14.00,2013-06-15 05:27:00,
2013-06-15 01:30:00,50.0,48.1,29.67,ENE,77,0.0,0.0,93,0.00,,---,0.00,0.00,VWS V14.00,2013-06-15 05:30:00,
2013-06-15 01:32:00,47.7,44.6,29.83,SE,126,0.0,0.0,89,0.00,,---,0.00,0.00,VWS V14.00,2013-06-15 05:32:00,
2013-06-15 01:37:00,47.5,44.4,29.84,SE,126,0.0,0.0,89,0.00,,---,0.00,0.00,VWS V14.00,2013-06-15 05:37:00,
2013-06-15 01:42:00,47.4,44.3,29.84,SE,126,0.0,0.0,89,0.00,,---,0.00,0.00,VWS V14.00,2013-06-15 05:42:00,
2013-06-15 01:47:00,47.2,44.1,29.84,SE,126,0.0,0.0,89,0.00,,---,0.00,0.00,VWS V14.00,2013-06-15 05:47:00,
2013-06-15 01:52:00,47.1,44.0,29.84,SE,126,0.0,0.0,89,0.00,,---,0.00,0.00,VWS V14.00,2013-06-15 05:52:00,
2013-06-15 01:57:00,46.8,43.7,29.84,SE,126,0.0,0.0,89,0.00,,---,0.00,0.00,VWS V14.00,2013-06-15 05:57:00,
2013-06-15 02:00:00,49.9,48.0,29.68,ENE,77,0.0,0.0,93,0.00,,---,0.00,0.00,VWS V14.00,2013-06-15 06:00:00,
2013-06-15 02:02:00,46.5,43.4,29.85,SE,126,0.0,0.0,89,0.00,,---,0.00,0.00,VWS V14.00,2013-06-15 06:02:00,
2013-06-15 02:07:00,46.5,43.4,29.84,SE,126,0.0,0.0,89,0.00,,---,0.00,0.00,VWS V14.00,2013-06-15 06:07:00,
2013-06-15 02:12:00,46.3,43.2,29.85,SE,126,0.0,0.0,89,0.00,,---,0.00,0.00,VWS V14.00,2013-06-15 06:12:00,
2013-06-15 02:17:00,46.2,43.4,29.85,SE,126,0.0,0.0,90,0.00,,---,0.00,0.00,VWS V14.00,2013-06-15 06:17:00,
2013-06-15 02:22:00,46.1,43.3,29.85,SE,126,0.0,0.0,90,0.00,,---,0.00,0.00,VWS V14.00,2013-06-15 06:22:00,
2013-06-15 02:27:00,45.9,43.1,29.85,SE,126,0.0,0.0,90,0.00,,---,0.00,0.00,VWS V14.00,2013-06-15 06:27:00,
2013-06-15 02:30:00,49.6,47.7,29.68,ENE,77,0.0,0.0,93,0.00,,---,0.00,0.00,VWS V14.00,2013-06-15 06:30:00,
2013-06-15 02:32:00,45.8,43.0,29.85,SE,126,0.0,0.0,90,0.00,,---,0.00,0.00,VWS V14.00,2013-06-15 06:32:00,
2013-06-15 02:37:00,45.6,42.8,29.85,SE,126,0.0,0.0,90,0.00,,---,0.00,0.00,VWS V14.00,2013-06-15 06:37:00,
2013-06-15 02:42:00,45.5,42.7,29.85,SE,126,0.0,0.0,90,0.00,,---,0.00,0.00,VWS V14.00,2013-06-15 06:42:00,
2013-06-15 02:47:00,45.3,42.5,29.85,SE,126,0.0,0.0,90,0.00,,---,0.00,0.00,VWS V14.00,2013-06-15 06:47:00,
2013-06-15 02:52:00,45.2,42.5,29.85,SE,126,0.0,0.0,90,0.00,,---,0.00,0.00,VWS V14.00,2013-06-15 06:52:00,
2013-06-15 02:57:00,44.7,42.0,29.85,SE,126,0.0,0.0,90,0.00,,---,0.00,0.00,VWS V14.00,2013-06-15 06:57:00,
2013-06-15 03:00:00,49.0,47.1,29.68,ENE,77,0.0,0.0,93,0.00,,---,0.00,0.00,VWS V14.00,2013-06-15 07:00:00,
2013-06-15 03:02:00,44.6,41.8,29.85,SE,126,0.0,0.0,90,0.00,,---,0.00,0.00,VWS V14.00,2013-06-15 07:02:00,
2013-06-15 03:07:00,44.5,41.8,29.86,SE,126,0.0,0.0,90,0.00,,---,0.00,0.00,VWS V14.00,2013-06-15 07:07:00,
2013-06-15 03:12:00,44.3,41.6,29.86,SE,126,0.0,0.0,90,0.00,,---,0.00,0.00,VWS V14.00,2013-06-15 07:12:00,
2013-06-15 03:17:00,44.2,41.5,29.86,SE,126,0.0,0.0,90,0.00,,---,0.00,0.00,VWS V14.00,2013-06-15 07:17:00,
2013-06-15 03:22:00,44.1,41.4,29.86,SE,126,0.0,0.0,90,0.00,,---,0.00,0.00,VWS V14.00,2013-06-15 07:22:00,
2013-06-15 03:27:00,43.4,40.7,29.86,SE,126,0.0,0.0,90,0.00,,---,0.00,0.00,VWS V14.00,2013-06-15 07:27:00,
2013-06-15 03:30:00,48.7,46.8,29.69,ENE,76,0.0,0.0,93,0.00,,---,0.00,21.00,VWS V14.00,2013-06-15 07:30:00,
2013-06-15 03:32:00,43.3,40.6,29.86,SE,126,0.0,0.0,90,0.00,,---,0.00,0.00,VWS V14.00,2013-06-15 07:32:00,
2013-06-15 03:37:00,43.5,41.0,29.86,SE,126,0.0,0.0,91,0.00,,---,0.00,0.00,VWS V14.00,2013-06-15 07:37:00,
2013-06-15 03:42:00,43.8,41.3,29.86,SE,126,0.0,0.0,91,0.00,,---,0.00,0.00,VWS V14.00,2013-06-15 07:42:00,
2013-06-15 03:47:00,43.9,41.5,29.86,SE,126,0.0,0.0,91,0.00,,---,0.00,0.00,VWS V14.00,2013-06-15 07:47:00,
2013-06-15 03:52:00,44.1,41.7,29.86,SE,126,0.0,0.0,91,0.00,,---,0.00,0.00,VWS V14.00,2013-06-15 07:52:00,
2013-06-15 03:57:00,44.1,41.7,29.86,SE,126,0.0,0.0,91,0.00,,---,0.00,0.00,VWS V14.00,2013-06-15 07:57:00,
2013-06-15 04:00:00,48.7,46.8,29.68,ENE,77,0.0,0.0,93,0.00,,---,0.00,40.00,VWS V14.00,2013-06-15 08:00:00,
2013-06-15 04:02:00,43.8,41.3,29.86,SE,126,0.0,0.0,91,0.00,,---,0.00,0.00,VWS V14.00,2013-06-15 08:02:00,
2013-06-15 04:07:00,43.6,41.2,29.87,SE,126,0.0,0.0,91,0.00,,---,0.00,0.00,VWS V14.00,2013-06-15 08:07:00,
2013-06-15 04:12:00,43.2,40.5,29.87,SE,126,0.0,0.0,90,0.00,,---,0.00,0.00,VWS V14.00,2013-06-15 08:12:00,
2013-06-15 04:18:00,43.1,40.7,29.87,SE,126,0.0,0.0,91,0.00,,---,0.00,0.00,VWS V14.00,2013-06-15 08:18:00,
2013-06-15 04:23:00,42.9,40.5,29.87,SE,126,0.0,0.0,91,0.00,,---,0.00,0.00,VWS V14.00,2013-06-15 08:23:00,
2013-06-15 04:28:00,42.9,40.5,29.88,SE,126,0.0,0.0,91,0.00,,---,0.00,0.00,VWS V14.00,2013-06-15 08:28:00,
2013-06-15 04:30:00,49.7,48.0,29.69,ENE,77,0.0,0.0,94,0.00,,---,0.00,116.00,VWS V14.00,2013-06-15 08:30:00,
2013-06-15 04:33:00,42.8,40.4,29.88,SE,126,0.0,0.0,91,0.00,,---,0.00,0.00,VWS V14.00,2013-06-15 08:33:00,
2013-06-15 04:38:00,42.8,40.4,29.88,SE,126,0.0,0.0,91,0.00,,---,0.00,0.00,VWS V14.00,2013-06-15 08:38:00,
2013-06-15 04:43:00,42.6,40.2,29.88,SE,126,0.0,0.0,91,0.00,,---,0.00,0.00,VWS V14.00,2013-06-15 08:43:00,
2013-06-15 04:48:00,42.8,40.4,29.88,SE,126,0.0,0.0,91,0.00,,---,0.00,0.00,VWS V14.00,2013-06-15 08:48:00,
2013-06-15 04:53:00,42.8,40.4,29.88,SE,126,0.0,0.0,91,0.00,,---,0.00,0.00,VWS V14.00,2013-06-15 08:53:00,
2013-06-15 04:58:00,42.8,40.4,29.88,SE,126,0.0,0.0,91,0.00,,---,0.00,0.00,VWS V14.00,2013-06-15 08:58:00,
2013-06-15 05:00:00,51.7,50.0,29.69,ENE,77,0.0,0.0,94,0.00,,---,0.00,156.00,VWS V14.00,2013-06-15 09:00:00,
2013-06-15 05:03:00,42.8,40.4,29.88,SE,126,0.0,0.0,91,0.00,,---,0.00,0.00,VWS V14.00,2013-06-15 09:03:00,
2013-06-15 05:08:00,42.6,40.2,29.88,SE,126,0.0,0.0,91,0.00,,---,0.00,0.00,VWS V14.00,2013-06-15 09:08:00,
2013-06-15 05:13:00,42.5,40.1,29.88,SE,126,0.0,0.0,91,0.00,,---,0.00,5.00,VWS V14.00,2013-06-15 09:13:00,
2013-06-15 05:18:00,42.4,40.0,29.88,SE,126,0.0,0.0,91,0.00,,---,0.00,7.00,VWS V14.00,2013-06-15 09:18:00,
2013-06-15 05:23:00,42.1,39.7,29.88,SE,126,0.0,0.0,91,0.00,,---,0.00,9.00,VWS V14.00,2013-06-15 09:23:00,
2013-06-15 05:28:00,41.8,39.4,29.88,SE,126,0.0,0.0,91,0.00,,---,0.00,11.00,VWS V14.00,2013-06-15 09:28:00,
2013-06-15 05:30:00,53.6,51.9,29.69,ENE,77,0.0,0.0,94,0.00,,---,0.00,216.00,VWS V14.00,2013-06-15 09:30:00,
2013-06-15 05:33:00,41.6,39.2,29.89,SE,126,0.0,0.0,91,0.00,,---,0.00,12.00,VWS V14.00,2013-06-15 09:33:00,
2013-06-15 05:38:00,41.5,39.1,29.89,SE,126,0.0,0.0,91,0.00,,---,0.00,14.00,VWS V14.00,2013-06-15 09:38:00,
2013-06-15 05:43:00,41.4,39.0,29.89,SE,126,0.0,0.0,91,0.00,,---,0.00,16.00,VWS V14.00,2013-06-15 09:43:00,
2013-06-15 05:48:00,41.5,39.1,29.89,SE,126,0.0,0.0,91,0.00,,---,0.00,18.00,VWS V14.00,2013-06-15 09:48:00,
2013-06-15 05:53:00,41.6,39.5,29.89,SE,126,0.0,0.0,92,0.00,,---,0.00,19.00,VWS V14.00,2013-06-15 09:53:00,
2013-06-15 05:58:00,41.8,39.7,29.89,SE,126,0.0,0.0,92,0.00,,---,0.00,21.00,VWS V14.00,2013-06-15 09:58:00,
2013-06-15 06:00:00,55.5,53.8,29.69,East,83,0.0,0.0,94,0.00,,---,0.00,315.00,VWS V14.00,2013-06-15 10:00:00,
2013-06-15 06:03:00,41.9,39.8,29.89,SE,126,0.0,0.0,92,0.00,,---,0.00,26.00,VWS V14.00,2013-06-15 10:03:00,
2013-06-15 06:08:00,42.3,40.2,29.89,SE,126,0.0,0.0,92,0.00,,---,0.00,49.00,VWS V14.00,2013-06-15 10:08:00,
2013-06-15 06:13:00,42.6,40.4,29.89,SE,126,0.0,0.0,92,0.00,,---,0.00,86.00,VWS V14.00,2013-06-15 10:13:00,
2013-06-15 06:18:00,43.1,40.9,29.89,SE,126,0.0,0.0,92,0.00,,---,0.00,100.00,VWS V14.00,2013-06-15 10:18:00,
2013-06-15 06:23:00,43.6,41.4,29.89,SE,126,0.0,0.0,92,0.00,,---,0.00,111.00,VWS V14.00,2013-06-15 10:23:00,
2013-06-15 06:28:00,43.9,41.7,29.89,SE,126,0.0,0.0,92,0.00,,---,0.00,123.00,VWS V14.00,2013-06-15 10:28:00,
2013-06-15 06:30:00,58.5,55.3,29.70,NW,317,0.0,0.0,89,0.00,,---,0.00,534.00,VWS V14.00,2013-06-15 10:30:00,
2013-06-15 06:33:00,44.2,42.0,29.89,SE,126,0.0,0.0,92,0.00,,---,0.00,139.00,VWS V14.00,2013-06-15 10:33:00,
2013-06-15 06:38:00,44.9,43.0,29.89,SE,126,0.0,0.0,93,0.00,,---,0.00,155.00,VWS V14.00,2013-06-15 10:38:00,
2013-06-15 06:43:00,45.3,43.1,29.89,SE,126,0.0,0.0,92,0.00,,---,0.00,169.00,VWS V14.00,2013-06-15 10:43:00,
2013-06-15 06:48:00,45.8,43.6,29.90,SE,126,0.0,0.0,92,0.00,,---,0.00,185.00,VWS V14.00,2013-06-15 10:48:00,
2013-06-15 06:53:00,46.3,44.1,29.90,SE,126,0.0,0.0,92,0.00,,---,0.00,199.00,VWS V14.00,2013-06-15 10:53:00,
2013-06-15 06:58:00,46.8,44.6,29.90,SE,126,0.0,0.0,92,0.00,,---,0.00,214.00,VWS V14.00,2013-06-15 10:58:00,
2013-06-15 07:00:00,59.8,54.0,29.71,WNW,285,0.0,0.0,81,0.00,,---,0.00,383.00,VWS V14.00,2013-06-15 11:00:00,
2013-06-15 07:03:00,47.4,45.2,29.90,SE,126,0.0,0.0,92,0.00,,---,0.00,230.00,VWS V14.00,2013-06-15 11:03:00,
2013-06-15 07:08:00,48.0,45.8,29.90,SE,126,0.0,0.0,92,0.00,,---,0.00,241.00,VWS V14.00,2013-06-15 11:08:00,
2013-06-15 07:13:00,48.5,46.3,29.90,WSW,258,0.0,0.0,92,0.00,,---,0.00,255.00,VWS V14.00,2013-06-15 11:13:00,
2013-06-15 07:18:00,49.0,46.5,29.90,WSW,258,0.0,0.0,91,0.00,,---,0.00,269.00,VWS V14.00,2013-06-15 11:18:00,
2013-06-15 07:23:00,49.6,46.8,29.90,WSW,258,0.0,0.0,90,0.00,,---,0.00,287.00,VWS V14.00,2013-06-15 11:23:00,
2013-06-15 07:28:00,50.4,47.6,29.90,WSW,258,0.0,0.0,90,0.00,,---,0.00,309.00,VWS V14.00,2013-06-15 11:28:00,
2013-06-15 07:30:00,61.8,54.9,29.70,WSW,257,0.0,0.0,78,0.00,,---,0.00,686.00,VWS V14.00,2013-06-15 11:30:00,
2013-06-15 07:33:00,51.2,48.4,29.91,WSW,258,0.0,0.0,90,0.00,,---,0.00,322.00,VWS V14.00,2013-06-15 11:33:00,
2013-06-15 07:38:00,52.0,48.9,29.91,WSW,258,0.0,0.0,89,0.00,,---,0.00,336.00,VWS V14.00,2013-06-15 11:38:00,
2013-06-15 07:43:00,52.9,49.1,29.91,WSW,258,0.0,0.0,87,0.00,,---,0.00,348.00,VWS V14.00,2013-06-15 11:43:00,
2013-06-15 07:48:00,53.6,49.5,29.91,WSW,258,0.0,0.0,86,0.00,,---,0.00,362.00,VWS V14.00,2013-06-15 11:48:00,
2013-06-15 07:53:00,54.3,49.3,29.91,WSW,258,0.0,0.0,83,0.00,,---,0.00,374.00,VWS V14.00,2013-06-15 11:53:00,
2013-06-15 07:58:00,55.0,49.0,29.91,WSW,258,0.0,0.0,80,0.00,,---,0.00,390.00,VWS V14.00,2013-06-15 11:58:00,
2013-06-15 08:00:00,65.5,56.2,29.70,NW,323,0.0,0.0,72,0.00,,---,0.00,789.00,VWS V14.00,2013-06-15 12:00:00,
2013-06-15 08:03:00,55.7,49.0,29.92,WSW,258,0.0,0.0,78,0.00,,---,0.00,404.00,VWS V14.00,2013-06-15 12:03:00,
2013-06-15 08:08:00,56.4,47.9,29.92,WSW,258,0.0,0.0,73,0.00,,---,0.00,417.00,VWS V14.00,2013-06-15 12:08:00,
2013-06-15 08:13:00,57.0,46.6,29.92,South,188,0.0,3.0,68,0.00,,---,0.00,434.00,VWS V14.00,2013-06-15 12:13:00,
2013-06-15 08:18:00,57.7,47.6,29.92,South,188,0.0,1.0,69,0.00,,---,0.00,450.00,VWS V14.00,2013-06-15 12:18:00,
2013-06-15 08:23:00,58.3,46.6,29.92,South,188,0.0,1.0,65,0.00,,---,0.00,466.00,VWS V14.00,2013-06-15 12:23:00,
2013-06-15 08:29:00,58.6,46.1,29.92,South,188,0.0,2.0,63,0.00,,---,0.00,478.00,VWS V14.00,2013-06-15 12:29:00,
2013-06-15 08:30:00,66.1,54.0,29.71,NW,321,0.0,0.0,65,0.00,,---,0.00,584.00,VWS V14.00,2013-06-15 12:30:00,
2013-06-15 08:34:00,58.9,46.3,29.92,South,188,0.0,2.0,63,0.00,,---,0.00,494.00,VWS V14.00,2013-06-15 12:34:00,
2013-06-15 08:39:00,59.2,48.3,29.92,South,188,1.0,2.0,67,0.00,,---,0.00,508.00,VWS V14.00,2013-06-15 12:39:00,
2013-06-15 08:44:00,59.4,47.7,29.92,South,188,0.0,2.0,65,0.00,,---,0.00,522.00,VWS V14.00,2013-06-15 12:44:00,
2013-06-15 08:49:00,59.9,47.3,29.92,South,188,3.0,3.0,63,0.00,,---,0.00,538.00,VWS V14.00,2013-06-15 12:49:00,
2013-06-15 08:54:00,60.2,47.6,29.92,South,188,0.0,3.0,63,0.00,,---,0.00,550.00,VWS V14.00,2013-06-15 12:54:00,
2013-06-15 08:59:00,60.5,47.0,29.92,South,188,1.0,3.0,61,0.00,,---,0.00,564.00,VWS V14.00,2013-06-15 12:59:00,
2013-06-15 09:00:00,66.2,56.5,29.71,WNW,298,0.0,0.0,71,0.00,,---,0.00,327.00,VWS V14.00,2013-06-15 13:00:00,
2013-06-15 09:04:00,60.9,46.5,29.92,South,188,0.0,3.0,59,0.00,,---,0.00,577.00,VWS V14.00,2013-06-15 13:04:00,
2013-06-15 09:09:00,61.3,48.2,29.91,South,188,2.0,3.0,62,0.00,,---,0.00,592.00,VWS V14.00,2013-06-15 13:09:00,
2013-06-15 09:14:00,61.8,47.3,29.91,WNW,285,0.0,5.0,59,0.00,,---,0.00,605.00,VWS V14.00,2013-06-15 13:14:00,
2013-06-15 09:19:00,62.6,48.1,29.92,NNW,347,0.0,3.0,59,0.00,,---,0.00,621.00,VWS V14.00,2013-06-15 13:19:00,
2013-06-15 09:24:00,62.9,44.5,29.92,SW,225,4.0,5.0,51,0.00,,---,0.00,628.00,VWS V14.00,2013-06-15 13:24:00,
2013-06-15 09:29:00,63.2,46.3,29.92,WSW,249,1.0,6.0,54,0.00,,---,0.00,642.00,VWS V14.00,2013-06-15 13:29:00,
2013-06-15 09:30:00,66.8,55.5,29.71,NW,323,0.0,0.0,67,0.00,,---,0.00,339.00,VWS V14.00,2013-06-15 13:30:00,
2013-06-15 09:34:00,63.2,44.8,29.92,WNW,290,0.0,6.0,51,0.00,,---,0.00,656.00,VWS V14.00,2013-06-15 13:34:00,
2013-06-15 09:39:00,63.2,46.8,29.92,WNW,284,7.0,7.0,55,0.00,,---,0.00,666.00,VWS V14.00,2013-06-15 13:39:00,
2013-06-15 09:44:00,63.5,45.6,29.92,West,265,4.0,7.0,52,0.00,,---,0.00,680.00,VWS V14.00,2013-06-15 13:44:00,
2013-06-15 09:49:00,63.6,46.2,29.92,West,277,2.0,9.0,53,0.00,,---,0.00,689.00,VWS V14.00,2013-06-15 13:49:00,
2013-06-15 09:54:00,63.4,46.0,29.91,WSW,242,2.0,9.0,53,0.00,,---,0.00,714.00,VWS V14.00,2013-06-15 13:54:00,
2013-06-15 09:59:00,63.7,47.7,29.91,WSW,247,3.0,9.0,56,0.00,,---,0.00,722.00,VWS V14.00,2013-06-15 13:59:00,
2013-06-15 10:00:00,67.1,55.8,29.71,NW,326,0.0,0.0,67,0.00,,---,0.00,1169.00,VWS V14.00,2013-06-15 14:00:00,
2013-06-15 10:04:00,63.3,46.4,29.92,SW,235,0.0,9.0,54,0.00,,---,0.00,744.00,VWS V14.00,2013-06-15 14:04:00,
2013-06-15 10:09:00,63.6,46.2,29.92,West,261,1.0,10.0,53,0.00,,---,0.00,782.00,VWS V14.00,2013-06-15 14:09:00,
2013-06-15 10:14:00,63.7,44.7,29.91,WSW,257,2.0,10.0,50,0.00,,---,0.00,747.00,VWS V14.00,2013-06-15 14:14:00,
2013-06-15 10:19:00,64.0,46.0,29.91,West,265,0.0,5.0,52,0.00,,---,0.00,768.00,VWS V14.00,2013-06-15 14:19:00,
2013-06-15 10:25:00,64.4,44.8,29.91,WSW,246,0.0,9.0,49,0.00,,---,0.00,770.00,VWS V14.00,2013-06-15 14:25:00,
2013-06-15 10:30:00,64.4,43.8,29.92,WSW,244,1.0,9.0,47,0.00,,---,0.00,782.00,VWS V14.00,2013-06-15 14:30:00,
2013-06-15 10:35:00,65.0,44.8,29.92,NW,306,3.0,9.0,48,0.00,,---,0.00,802.00,VWS V14.00,2013-06-15 14:35:00,
2013-06-15 10:40:00,64.8,44.1,29.91,West,263,2.0,9.0,47,0.00,,---,0.00,800.00,VWS V14.00,2013-06-15 14:40:00,
2013-06-15 10:45:00,64.7,44.0,29.92,NW,309,2.0,2.0,47,0.00,,---,0.00,810.00,VWS V14.00,2013-06-15 14:45:00,
2013-06-15 10:50:00,64.9,43.7,29.92,West,263,0.0,6.0,46,0.00,,---,0.00,867.00,VWS V14.00,2013-06-15 14:50:00,
2013-06-15 10:55:00,64.8,45.2,29.92,West,261,2.0,7.0,49,0.00,,---,0.00,782.00,VWS V14.00,2013-06-15 14:55:00,
2013-06-15 11:00:00,64.8,44.1,29.92,WSW,246,2.0,7.0,47,0.00,,---,0.00,127.00,VWS V14.00,2013-06-15 15:00:00,
2013-06-15 11:05:00,65.0,46.5,29.92,WNW,298,4.0,7.0,51,0.00,,---,0.00,937.00,VWS V14.00,2013-06-15 15:05:00,
2013-06-15 11:10:00,65.0,46.5,29.92,West,262,1.0,9.0,51,0.00,,---,0.00,889.00,VWS V14.00,2013-06-15 15:10:00,
2013-06-15 11:15:00,64.8,43.6,29.91,WSW,254,0.0,0.0,46,0.00,,---,0.00,865.00,VWS V14.00,2013-06-15 15:15:00,
2013-06-15 11:20:00,65.3,45.1,29.91,WNW,290,1.0,8.0,48,0.00,,---,0.00,911.00,VWS V14.00,2013-06-15 15:20:00,
2013-06-15 11:25:00,65.2,44.5,29.92,WNW,292,3.0,10.0,47,0.00,,---,0.00,925.00,VWS V14.00,2013-06-15 15:25:00,
2013-06-15 11:30:00,65.9,45.1,29.92,NW,315,3.0,11.0,47,0.00,,---,0.00,912.00,VWS V14.00,2013-06-15 15:30:00,
2013-06-15 11:35:00,66.5,46.8,29.92,NW,319,8.0,11.0,49,0.00,,---,0.00,905.00,VWS V14.00,2013-06-15 15:35:00,
2013-06-15 11:40:00,66.3,45.5,29.92,SW,235,7.0,11.0,47,0.00,,---,0.00,911.00,VWS V14.00,2013-06-15 15:40:00,
2013-06-15 11:45:00,65.9,43.4,29.91,West,261,0.0,0.0,44,0.00,,---,0.00,911.00,VWS V14.00,2013-06-15 15:45:00,
2013-06-15 11:50:00,66.3,43.8,29.92,NW,319,8.0,12.0,44,0.00,,---,0.00,912.00,VWS V14.00,2013-06-15 15:50:00,
2013-06-15 11:55:00,65.7,42.6,29.92,WNW,295,1.0,12.0,43,0.00,,---,0.00,918.00,VWS V14.00,2013-06-15 15:55:00,
2013-06-15 12:00:00,66.1,44.7,29.92,NW,312,1.0,12.0,46,0.00,,---,0.00,919.00,VWS V14.00,2013-06-15 16:00:00,
2013-06-15 12:05:00,65.9,44.0,29.92,WNW,294,2.0,12.0,45,0.00,,---,0.00,923.00,VWS V14.00,2013-06-15 16:05:00,
2013-06-15 12:10:00,66.3,43.8,29.92,NW,312,0.0,12.0,44,0.00,,---,0.00,935.00,VWS V14.00,2013-06-15 16:10:00,
2013-06-15 12:15:00,66.6,42.8,29.92,West,271,5.0,5.0,42,0.00,,---,0.00,930.00,VWS V14.00,2013-06-15 16:15:00,
2013-06-15 12:20:00,66.6,44.6,29.92,NW,313,3.0,13.0,45,0.00,,---,0.00,947.00,VWS V14.00,2013-06-15 16:20:00,
2013-06-15 12:25:00,66.3,41.9,29.92,WSW,247,0.0,13.0,41,0.00,,---,0.00,951.00,VWS V14.00,2013-06-15 16:25:00,
2013-06-15 12:30:00,66.6,43.4,29.92,SW,235,3.0,13.0,43,0.00,,---,0.00,963.00,VWS V14.00,2013-06-15 16:30:00,
2013-06-15 12:35:00,66.9,44.9,29.92,WNW,303,6.0,13.0,45,0.00,,---,0.00,958.00,VWS V14.00,2013-06-15 16:35:00,
2013-06-15 12:40:00,66.5,43.9,29.92,WNW,291,1.0,13.0,44,0.00,,---,0.00,969.00,VWS V14.00,2013-06-15 16:40:00,
2013-06-15 12:45:00,65.7,42.6,29.91,NNE,22,3.0,4.0,43,0.00,,---,0.00,983.00,VWS V14.00,2013-06-15 16:45:00,
2013-06-15 12:50:00,66.7,43.5,29.92,NW,319,2.0,10.0,43,0.00,,---,0.00,1032.00,VWS V14.00,2013-06-15 16:50:00,
2013-06-15 12:55:00,66.3,44.9,29.91,NW,323,1.0,10.0,46,0.00,,---,0.00,1002.00,VWS V14.00,2013-06-15 16:55:00,
2013-06-15 13:00:00,67.2,43.4,29.91,WNW,290,2.0,10.0,42,0.00,,---,0.00,988.00,VWS V14.00,2013-06-15 17:00:00,
2013-06-15 13:05:00,66.8,43.6,29.91,North,5,4.0,11.0,43,0.00,,---,0.00,318.00,VWS V14.00,2013-06-15 17:05:00,
2013-06-15 13:10:00,66.1,43.6,29.91,WNW,292,4.0,11.0,44,0.00,,---,0.00,967.00,VWS V14.00,2013-06-15 17:10:00,
2013-06-15 13:15:00,67.0,47.2,29.91,WSW,248,2.0,3.0,49,0.00,,---,0.00,1011.00,VWS V14.00,2013-06-15 17:15:00,
2013-06-15 13:20:00,66.9,44.3,29.91,WSW,254,1.0,6.0,44,0.00,,---,0.00,190.00,VWS V14.00,2013-06-15 17:20:00,
2013-06-15 13:25:00,65.9,46.2,29.91,SW,234,0.0,6.0,49,0.00,,---,0.00,172.00,VWS V14.00,2013-06-15 17:25:00,
2013-06-15 13:30:00,66.9,47.1,29.90,West,260,1.0,6.0,49,0.00,,---,0.00,988.00,VWS V14.00,2013-06-15 17:30:00,
2013-06-15 13:35:00,67.9,47.0,29.90,NW,319,1.0,6.0,47,0.00,,---,0.00,960.00,VWS V14.00,2013-06-15 17:35:00,
2013-06-15 13:40:00,68.3,46.2,29.90,SSW,213,3.0,6.0,45,0.00,,---,0.00,925.00,VWS V14.00,2013-06-15 17:40:00,
2013-06-15 13:45:00,68.3,47.9,29.90,NW,316,3.0,3.0,48,0.00,,---,0.00,914.00,VWS V14.00,2013-06-15 17:45:00,
2013-06-15 13:50:00,68.0,48.2,29.90,WNW,296,3.0,6.0,49,0.00,,---,0.00,953.00,VWS V14.00,2013-06-15 17:50:00,
2013-06-15 13:55:00,68.7,47.7,29.89,WNW,287,5.0,7.0,47,0.00,,---,0.00,932.00,VWS V14.00,2013-06-15 17:55:00,
2013-06-15 14:00:00,67.9,44.6,29.90,WNW,289,1.0,10.0,43,0.00,,---,0.00,925.00,VWS V14.00,2013-06-15 18:00:00,
2013-06-15 14:05:00,68.3,46.7,29.89,WNW,302,8.0,10.0,46,0.00,,---,0.00,933.00,VWS V14.00,2013-06-15 18:05:00,
2013-06-15 14:10:00,68.3,45.0,29.89,West,269,2.0,10.0,43,0.00,,---,0.00,918.00,VWS V14.00,2013-06-15 18:10:00,
2013-06-15 14:15:00,68.6,48.7,29.89,WSW,246,1.0,6.0,49,0.00,,---,0.00,923.00,VWS V14.00,2013-06-15 18:15:00,
2013-06-15 14:20:00,69.4,45.3,29.89,WSW,242,4.0,6.0,42,0.00,,---,0.00,879.00,VWS V14.00,2013-06-15 18:20:00,
2013-06-15 14:25:00,69.3,47.1,29.89,West,267,2.0,8.0,45,0.00,,---,0.00,911.00,VWS V14.00,2013-06-15 18:25:00,
2013-06-15 14:30:00,69.0,48.5,29.88,WSW,253,0.0,8.0,48,0.00,,---,0.00,896.00,VWS V14.00,2013-06-15 18:30:00,
2013-06-15 14:35:00,69.1,45.1,29.88,ESE,107,1.0,8.0,42,0.00,,---,0.00,891.00,VWS V14.00,2013-06-15 18:35:00,
2013-06-15 14:40:00,68.9,45.5,29.88,South,190,2.0,8.0,43,0.00,,---,0.00,911.00,VWS V14.00,2013-06-15 18:40:00,
2013-06-15 14:45:00,69.4,46.6,29.88,West,259,1.0,2.0,44,0.00,,---,0.00,874.00,VWS V14.00,2013-06-15 18:45:00,
2013-06-15 14:51:00,69.2,45.2,29.88,WSW,239,2.0,6.0,42,0.00,,---,0.00,868.00,VWS V14.00,2013-06-15 18:51:00,
2013-06-15 14:56:00,69.5,46.7,29.88,WNW,285,7.0,8.0,44,0.00,,---,0.00,858.00,VWS V14.00,2013-06-15 18:56:00,
2013-06-15 15:00:00,69.8,51.4,29.73,NNW,331,0.0,0.0,52,0.00,,---,0.00,527.00,VWS V14.00,2013-06-15 19:00:00,
2013-06-15 15:01:00,69.4,45.3,29.88,South,190,2.0,9.0,42,0.00,,---,0.00,853.00,VWS V14.00,2013-06-15 19:01:00,
2013-06-15 15:06:00,70.0,46.5,29.88,SW,223,1.0,9.0,43,0.00,,---,0.00,833.00,VWS V14.00,2013-06-15 19:06:00,
2013-06-15 15:11:00,70.0,44.6,29.88,WNW,300,7.0,9.0,40,0.00,,---,0.00,833.00,VWS V14.00,2013-06-15 19:11:00,
2013-06-15 15:16:00,69.4,45.3,29.87,WNW,288,6.0,8.0,42,0.00,,---,0.00,826.00,VWS V14.00,2013-06-15 19:16:00,
2013-06-15 15:21:00,69.2,45.2,29.87,WNW,284,2.0,9.0,42,0.00,,---,0.00,814.00,VWS V14.00,2013-06-15 19:21:00,
2013-06-15 15:26:00,69.5,48.4,29.87,WSW,239,0.0,9.0,47,0.00,,---,0.00,805.00,VWS V14.00,2013-06-15 19:26:00,
2013-06-15 15:30:00,69.7,52.3,29.74,WSW,256,0.0,0.0,54,0.00,,---,0.00,439.00,VWS V14.00,2013-06-15 19:30:00,
2013-06-15 15:31:00,69.6,47.3,29.87,SSW,211,1.0,9.0,45,0.00,,---,0.00,795.00,VWS V14.00,2013-06-15 19:31:00,
2013-06-15 15:36:00,70.6,46.4,29.87,West,263,1.0,9.0,42,0.00,,---,0.00,788.00,VWS V14.00,2013-06-15 19:36:00,
2013-06-15 15:41:00,70.1,45.3,29.87,West,271,6.0,10.0,41,0.00,,---,0.00,780.00,VWS V14.00,2013-06-15 19:41:00,
2013-06-15 15:46:00,69.8,46.9,29.87,WNW,299,8.0,8.0,44,0.00,,---,0.00,766.00,VWS V14.00,2013-06-15 19:46:00,
2013-06-15 15:51:00,70.1,46.6,29.86,NW,314,3.0,9.0,43,0.00,,---,0.00,765.00,VWS V14.00,2013-06-15 19:51:00,
2013-06-15 15:56:00,70.6,47.0,29.86,West,270,2.0,10.0,43,0.00,,---,0.00,756.00,VWS V14.00,2013-06-15 19:56:00,
2013-06-15 16:00:00,69.3,52.5,29.74,NW,309,0.0,0.0,55,0.00,,---,0.00,366.00,VWS V14.00,2013-06-15 20:00:00,
2013-06-15 16:01:00,70.8,46.0,29.86,NW,306,3.0,10.0,41,0.00,,---,0.00,749.00,VWS V14.00,2013-06-15 20:01:00,
2013-06-15 16:06:00,70.7,47.1,29.86,WSW,249,2.0,10.0,43,0.00,,---,0.00,735.00,VWS V14.00,2013-06-15 20:06:00,
2013-06-15 16:11:00,70.4,46.9,29.86,WSW,257,2.0,10.0,43,0.00,,---,0.00,733.00,VWS V14.00,2013-06-15 20:11:00,
2013-06-15 16:16:00,70.2,46.7,29.86,NW,309,7.0,8.0,43,0.00,,---,0.00,728.00,VWS V14.00,2013-06-15 20:16:00,
2013-06-15 16:21:00,70.6,47.0,29.86,West,269,3.0,9.0,43,0.00,,---,0.00,728.00,VWS V14.00,2013-06-15 20:21:00,
2013-06-15 16:26:00,70.3,46.8,29.86,West,269,5.0,11.0,43,0.00,,---,0.00,703.00,VWS V14.00,2013-06-15 20:26:00,
2013-06-15 16:30:00,69.1,52.8,29.75,SW,232,0.0,0.0,56,0.00,,---,0.00,244.00,VWS V14.00,2013-06-15 20:30:00,
2013-06-15 16:31:00,70.8,47.2,29.86,NW,319,2.0,11.0,43,0.00,,---,0.00,710.00,VWS V14.00,2013-06-15 20:31:00,
2013-06-15 16:36:00,70.3,47.4,29.86,NNW,332,6.0,11.0,44,0.00,,---,0.00,719.00,VWS V14.00,2013-06-15 20:36:00,
2013-06-15 16:41:00,70.0,47.7,29.85,West,273,3.0,11.0,45,0.00,,---,0.00,715.00,VWS V14.00,2013-06-15 20:41:00,
2013-06-15 16:46:00,69.9,46.4,29.85,WNW,302,0.0,7.0,43,0.00,,---,0.00,190.00,VWS V14.00,2013-06-15 20:46:00,
2013-06-15 16:51:00,69.8,46.9,29.85,WNW,302,2.0,7.0,44,0.00,,---,0.00,135.00,VWS V14.00,2013-06-15 20:51:00,
2013-06-15 16:56:00,69.4,47.7,29.85,NW,304,0.0,7.0,46,0.00,,---,0.00,116.00,VWS V14.00,2013-06-15 20:56:00,
2013-06-15 17:00:00,67.7,53.8,29.76,WNW,294,0.0,0.0,61,0.00,,---,0.00,116.00,VWS V14.00,2013-06-15 21:00:00,
2013-06-15 17:01:00,68.9,47.3,29.85,NW,304,0.0,7.0,46,0.00,,---,0.00,130.00,VWS V14.00,2013-06-15 21:01:00,
2013-06-15 17:06:00,68.5,48.1,29.85,NW,304,0.0,7.0,48,0.00,,---,0.00,132.00,VWS V14.00,2013-06-15 21:06:00,
2013-06-15 17:11:00,68.3,47.3,29.85,WNW,282,0.0,7.0,47,0.00,,---,0.00,162.00,VWS V14.00,2013-06-15 21:11:00,
2013-06-15 17:16:00,68.1,46.6,29.85,WNW,282,0.0,2.0,46,0.00,,---,0.00,158.00,VWS V14.00,2013-06-15 21:16:00,
2013-06-15 17:21:00,68.0,46.5,29.85,WSW,251,1.0,3.0,46,0.00,,---,0.00,160.00,VWS V14.00,2013-06-15 21:21:00,
2013-06-15 17:26:00,68.0,47.0,29.85,WSW,248,0.0,4.0,47,0.00,,---,0.00,142.00,VWS V14.00,2013-06-15 21:26:00,
2013-06-15 17:30:00,66.4,53.9,29.77,North,5,0.0,0.0,64,0.00,,---,0.00,70.00,VWS V14.00,2013-06-15 21:30:00,
2013-06-15 17:31:00,67.9,48.1,29.85,WSW,248,0.0,4.0,49,0.00,,---,0.00,135.00,VWS V14.00,2013-06-15 21:31:00,
2013-06-15 17:36:00,67.7,47.9,29.85,NW,313,0.0,4.0,49,0.00,,---,0.00,162.00,VWS V14.00,2013-06-15 21:36:00,
2013-06-15 17:41:00,67.9,45.8,29.85,NW,311,0.0,4.0,45,0.00,,---,0.00,169.00,VWS V14.00,2013-06-15 21:41:00,
2013-06-15 17:46:00,67.7,50.0,29.85,NW,311,0.0,0.0,53,0.00,,---,0.00,325.00,VWS V14.00,2013-06-15 21:46:00,
2013-06-15 17:51:00,68.1,46.6,29.85,WNW,295,3.0,6.0,46,0.00,,---,0.00,193.00,VWS V14.00,2013-06-15 21:51:00,
2013-06-15 17:56:00,68.3,45.0,29.85,North,349,1.0,13.0,43,0.00,,---,0.00,158.00,VWS V14.00,2013-06-15 21:56:00,
2013-06-15 18:00:00,65.7,54.0,29.77,WNW,285,0.0,0.0,66,0.00,,---,0.00,19.00,VWS V14.00,2013-06-15 22:00:00,
2013-06-15 18:01:00,68.8,44.2,29.85,WNW,302,2.0,13.0,41,0.00,,---,0.00,476.00,VWS V14.00,2013-06-15 22:01:00,
2013-06-15 18:06:00,69.2,44.5,29.85,WSW,243,2.0,13.0,41,0.00,,---,0.00,501.00,VWS V14.00,2013-06-15 22:06:00,
2013-06-15 18:11:00,69.4,45.3,29.85,WNW,296,7.0,13.0,42,0.00,,---,0.00,475.00,VWS V14.00,2013-06-15 22:11:00,
2013-06-15 18:16:00,69.4,45.3,29.86,WNW,299,2.0,3.0,42,0.00,,---,0.00,206.00,VWS V14.00,2013-06-15 22:16:00,
2013-06-15 18:21:00,69.1,44.4,29.86,West,273,1.0,9.0,41,0.00,,---,0.00,229.00,VWS V14.00,2013-06-15 22:21:00,
2013-06-15 18:26:00,68.9,44.9,29.86,WNW,296,0.0,9.0,42,0.00,,---,0.00,237.00,VWS V14.00,2013-06-15 22:26:00,
2013-06-15 18:30:00,64.5,53.3,29.77,NNW,345,0.0,0.0,67,0.00,,---,0.00,0.00,VWS V14.00,2013-06-15 22:30:00,
2013-06-15 18:31:00,68.9,44.2,29.86,NW,323,0.0,9.0,41,0.00,,---,0.00,367.00,VWS V14.00,2013-06-15 22:31:00,
2013-06-15 18:36:00,69.1,45.1,29.85,NW,310,1.0,9.0,42,0.00,,---,0.00,346.00,VWS V14.00,2013-06-15 22:36:00,
2013-06-15 18:41:00,69.2,45.2,29.86,NW,314,3.0,9.0,42,0.00,,---,0.00,322.00,VWS V14.00,2013-06-15 22:41:00,
2013-06-15 18:46:00,68.9,45.5,29.86,NW,315,0.0,4.0,43,0.00,,---,0.00,211.00,VWS V14.00,2013-06-15 22:46:00,
2013-06-15 18:51:00,68.8,45.4,29.85,WNW,296,0.0,4.0,43,0.00,,---,0.00,193.00,VWS V14.00,2013-06-15 22:51:00,
2013-06-15 18:56:00,68.5,46.3,29.86,WNW,293,1.0,4.0,45,0.00,,---,0.00,86.00,VWS V14.00,2013-06-15 22:56:00,
2013-06-15 19:00:00,63.3,52.6,29.78,NW,317,0.0,0.0,68,0.00,,---,0.00,0.00,VWS V14.00,2013-06-15 23:00:00,
2013-06-15 19:01:00,68.3,46.2,29.86,WNW,298,1.0,5.0,45,0.00,,---,0.00,93.00,VWS V14.00,2013-06-15 23:01:00,
2013-06-15 19:06:00,68.3,46.2,29.86,WNW,298,0.0,5.0,45,0.00,,---,0.00,81.00,VWS V14.00,2013-06-15 23:06:00,
2013-06-15 19:11:00,68.2,46.1,29.86,WNW,296,5.0,6.0,45,0.00,,---,0.00,54.00,VWS V14.00,2013-06-15 23:11:00,
2013-06-15 19:16:00,68.0,46.5,29.86,NW,311,2.0,3.0,46,0.00,,---,0.00,72.00,VWS V14.00,2013-06-15 23:16:00,
2013-06-15 19:21:00,67.5,47.1,29.86,NW,305,3.0,4.0,48,0.00,,---,0.00,65.00,VWS V14.00,2013-06-15 23:21:00,
2013-06-15 19:27:00,67.3,46.4,29.86,WNW,301,0.0,4.0,47,0.00,,---,0.00,46.00,VWS V14.00,2013-06-15 23:27:00,
2013-06-15 19:30:00,60.2,53.3,29.79,NW,317,0.0,0.0,78,0.00,,---,0.00,0.00,VWS V14.00,2013-06-15 23:30:00,
2013-06-15 19:32:00,67.0,48.3,29.86,WNW,294,3.0,4.0,51,0.00,,---,0.00,44.00,VWS V14.00,2013-06-15 23:32:00,
2013-06-15 19:37:00,66.6,48.4,29.86,WNW,294,0.0,4.0,52,0.00,,---,0.00,42.00,VWS V14.00,2013-06-15 23:37:00,
2013-06-15 19:42:00,66.1,48.0,29.87,WNW,294,0.0,4.0,52,0.00,,---,0.00,28.00,VWS V14.00,2013-06-15 23:42:00,
2013-06-15 19:47:00,65.3,50.2,29.87,WNW,294,0.0,0.0,58,0.00,,---,0.00,25.00,VWS V14.00,2013-06-15 23:47:00,
2013-06-15 19:52:00,64.2,50.0,29.87,WNW,294,0.0,0.0,60,0.00,,---,0.00,25.00,VWS V14.00,2013-06-15 23:52:00,
2013-06-15 19:57:00,63.3,49.6,29.87,WNW,294,0.0,0.0,61,0.00,,---,0.00,25.00,VWS V14.00,2013-06-15 23:57:00,
2013-06-15 20:00:00,56.9,51.8,29.79,NW,317,0.0,0.0,83,0.00,,---,0.00,0.00,VWS V14.00,2013-06-16 00:00:00,
2013-06-15 20:02:00,62.6,51.5,29.88,WNW,294,0.0,0.0,67,0.00,,---,0.00,23.00,VWS V14.00,2013-06-16 00:02:00,
2013-06-15 20:07:00,61.8,51.9,29.87,WNW,294,0.0,0.0,70,0.00,,---,0.00,26.00,VWS V14.00,2013-06-16 00:07:00,
2013-06-15 20:12:00,61.3,52.2,29.88,WNW,294,0.0,0.0,72,0.00,,---,0.00,26.00,VWS V14.00,2013-06-16 00:12:00,
2013-06-15 20:17:00,60.9,52.6,29.88,WNW,294,0.0,0.0,74,0.00,,---,0.00,21.00,VWS V14.00,2013-06-16 00:17:00,
2013-06-15 20:22:00,60.3,52.3,29.88,WNW,294,0.0,0.0,75,0.00,,---,0.00,14.00,VWS V14.00,2013-06-16 00:22:00,
2013-06-15 20:27:00,59.6,51.7,29.88,WNW,294,0.0,0.0,75,0.00,,---,0.00,12.00,VWS V14.00,2013-06-16 00:27:00,
2013-06-15 20:30:00,54.8,50.4,29.80,NW,317,0.0,0.0,85,0.00,,---,0.00,0.00,VWS V14.00,2013-06-16 00:30:00,
2013-06-15 20:32:00,59.2,51.7,29.88,WNW,294,0.0,0.0,76,0.00,,---,0.00,7.00,VWS V14.00,2013-06-16 00:32:00,
2013-06-15 20:37:00,58.7,51.5,29.88,WNW,294,0.0,0.0,77,0.00,,---,0.00,5.00,VWS V14.00,2013-06-16 00:37:00,
2013-06-15 20:42:00,58.1,51.3,29.88,WNW,294,0.0,1.0,78,0.00,,---,0.00,0.00,VWS V14.00,2013-06-16 00:42:00,
2013-06-15 20:47:00,57.7,51.2,29.88,WNW,294,1.0,1.0,79,0.00,,---,0.00,0.00,VWS V14.00,2013-06-16 00:47:00,
2013-06-15 20:52:00,57.3,51.2,29.88,NW,305,0.0,3.0,80,0.00,,---,0.00,0.00,VWS V14.00,2013-06-16 00:52:00,
2013-06-15 20:57:00,56.9,50.5,29.88,ENE,78,3.0,3.0,79,0.00,,---,0.00,0.00,VWS V14.00,2013-06-16 00:57:00,
2013-06-15 21:00:00,52.3,48.2,29.81,NW,317,0.0,0.0,86,0.00,,---,0.00,0.00,VWS V14.00,2013-06-16 01:00:00,
2013-06-15 21:02:00,56.7,50.3,29.88,East,84,0.0,3.0,79,0.00,,---,0.00,0.00,VWS V14.00,2013-06-16 01:02:00,
2013-06-15 21:07:00,56.4,50.3,29.88,East,84,2.0,3.0,80,0.00,,---,0.00,0.00,VWS V14.00,2013-06-16 01:07:00,
2013-06-15 21:12:00,56.1,49.7,29.88,East,84,0.0,3.0,79,0.00,,---,0.00,0.00,VWS V14.00,2013-06-16 01:12:00,
2013-06-15 21:17:00,55.8,49.4,29.88,East,84,3.0,3.0,79,0.00,,---,0.00,0.00,VWS V14.00,2013-06-16 01:17:00,
2013-06-15 21:22:00,55.5,49.1,29.88,East,94,1.0,5.0,79,0.00,,---,0.00,0.00,VWS V14.00,2013-06-16 01:22:00,
2013-06-15 21:27:00,55.1,49.0,29.89,East,94,1.0,5.0,80,0.00,,---,0.00,0.00,VWS V14.00,2013-06-16 01:27:00,
2013-06-15 21:30:00,50.9,47.5,29.82,NW,317,0.0,0.0,88,0.00,,---,0.00,0.00,VWS V14.00,2013-06-16 01:30:00,
2013-06-15 21:32:00,54.5,48.8,29.89,East,94,1.0,5.0,81,0.00,,---,0.00,0.00,VWS V14.00,2013-06-16 01:32:00,
2013-06-15 21:37:00,54.2,48.5,29.89,East,94,2.0,5.0,81,0.00,,---,0.00,0.00,VWS V14.00,2013-06-16 01:37:00,
2013-06-15 21:42:00,54.0,48.0,29.90,East,94,2.0,5.0,80,0.00,,---,0.00,0.00,VWS V14.00,2013-06-16 01:42:00,
2013-06-15 21:47:00,54.0,48.0,29.90,East,94,1.0,3.0,80,0.00,,---,0.00,0.00,VWS V14.00,2013-06-16 01:47:00,
2013-06-15 21:52:00,53.7,47.7,29.90,East,94,1.0,3.0,80,0.00,,---,0.00,0.00,VWS V14.00,2013-06-16 01:52:00,
2013-06-15 21:57:00,53.5,47.5,29.90,East,94,1.0,3.0,80,0.00,,---,0.00,0.00,VWS V14.00,2013-06-16 01:57:00,
2013-06-15 22:00:00,50.0,46.6,29.83,NW,317,0.0,0.0,88,0.00,,---,0.00,0.00,VWS V14.00,2013-06-16 02:00:00,
2013-06-15 22:02:00,53.3,47.3,29.90,East,94,1.0,3.0,80,0.00,,---,0.00,0.00,VWS V14.00,2013-06-16 02:02:00,
2013-06-15 22:07:00,53.0,47.3,29.90,East,94,1.0,3.0,81,0.00,,---,0.00,0.00,VWS V14.00,2013-06-16 02:07:00,
2013-06-15 22:12:00,52.7,47.0,29.90,East,94,1.0,3.0,81,0.00,,---,0.00,0.00,VWS V14.00,2013-06-16 02:12:00,
2013-06-15 22:17:00,52.4,47.1,29.90,East,94,2.0,2.0,82,0.00,,---,0.00,0.00,VWS V14.00,2013-06-16 02:17:00,
2013-06-15 22:22:00,52.1,46.8,29.90,East,94,0.0,2.0,82,0.00,,---,0.00,0.00,VWS V14.00,2013-06-16 02:22:00,
2013-06-15 22:27:00,51.9,46.6,29.90,East,94,0.0,2.0,82,0.00,,---,0.00,0.00,VWS V14.00,2013-06-16 02:27:00,
2013-06-15 22:30:00,49.0,45.9,29.83,SE,126,0.0,0.0,89,0.00,,---,0.00,0.00,VWS V14.00,2013-06-16 02:30:00,
2013-06-15 22:32:00,51.7,46.4,29.90,East,94,2.0,2.0,82,0.00,,---,0.00,0.00,VWS V14.00,2013-06-16 02:32:00,
2013-06-15 22:37:00,51.3,46.3,29.90,East,94,0.0,2.0,83,0.00,,---,0.00,0.00,VWS V14.00,2013-06-16 02:37:00,
2013-06-15 22:42:00,51.1,46.4,29.90,East,94,0.0,2.0,84,0.00,,---,0.00,0.00,VWS V14.00,2013-06-16 02:42:00,
2013-06-15 22:47:00,50.9,46.2,29.91,East,94,0.0,0.0,84,0.00,,---,0.00,0.00,VWS V14.00,2013-06-16 02:47:00,
2013-06-15 22:52:00,50.6,46.0,29.90,East,94,1.0,2.0,84,0.00,,---,0.00,0.00,VWS V14.00,2013-06-16 02:52:00,
2013-06-15 22:57:00,50.3,45.7,29.91,East,94,0.0,2.0,84,0.00,,---,0.00,0.00,VWS V14.00,2013-06-16 02:57:00,
2013-06-15 23:00:00,48.4,45.3,29.83,SE,126,0.0,0.0,89,0.00,,---,0.00,0.00,VWS V14.00,2013-06-16 03:00:00,
2013-06-15 23:02:00,50.1,45.5,29.91,East,94,2.0,2.0,84,0.00,,---,0.00,0.00,VWS V14.00,2013-06-16 03:02:00,
2013-06-15 23:07:00,49.9,45.3,29.91,East,94,0.0,2.0,84,0.00,,---,0.00,0.00,VWS V14.00,2013-06-16 03:07:00,
2013-06-15 23:12:00,49.8,45.5,29.91,East,94,3.0,3.0,85,0.00,,---,0.00,0.00,VWS V14.00,2013-06-16 03:12:00,
2013-06-15 23:17:00,49.7,45.4,29.91,East,94,1.0,1.0,85,0.00,,---,0.00,0.00,VWS V14.00,2013-06-16 03:17:00,
2013-06-15 23:22:00,49.5,45.2,29.91,East,94,0.0,3.0,85,0.00,,---,0.00,0.00,VWS V14.00,2013-06-16 03:22:00,
2013-06-15 23:27:00,49.3,45.0,29.91,East,94,0.0,3.0,85,0.00,,---,0.00,0.00,VWS V14.00,2013-06-16 03:27:00,
2013-06-15 23:30:00,47.3,44.2,29.84,SE,126,0.0,0.0,89,0.00,,---,0.00,0.00,VWS V14.00,2013-06-16 03:30:00,
2013-06-15 23:32:00,49.2,44.9,29.91,East,94,0.0,3.0,85,0.00,,---,0.00,0.00,VWS V14.00,2013-06-16 03:32:00,
2013-06-15 23:37:00,49.0,45.0,29.91,East,94,0.0,3.0,86,0.00,,---,0.00,0.00,VWS V14.00,2013-06-16 03:37:00,
2013-06-15 23:42:00,48.7,44.7,29.91,East,94,0.0,3.0,86,0.00,,---,0.00,0.00,VWS V14.00,2013-06-16 03:42:00,
2013-06-15 23:47:00,48.5,44.5,29.91,East,94,0.0,1.0,86,0.00,,---,0.00,0.00,VWS V14.00,2013-06-16 03:47:00,
2013-06-15 23:52:00,48.1,44.1,29.91,East,94,0.0,2.0,86,0.00,,---,0.00,0.00,VWS V14.00,2013-06-16 03:52:00,
2013-06-15 23:57:00,48.2,44.5,29.91,East,94,3.0,3.0,87,0.00,,---,0.00,0.00,VWS V14.00,2013-06-16 03:57:00,